This is the latest recevied weather packets stored in our database for station/object N5ZP. If no packets are shown the sender has not sent any weather packets the latest 1 day(s).
| Time | Temp. | Humidity | Pressure | Rain* | Wind** | Luminosity | Snow |
|---|---|---|---|---|---|---|---|
| 1777979977 | 21.11° C | 83% | 1000.4 hPa | 0 mm | 0.89 m/s, 203° | 0 W/m² | - |
| 1777979672 | 21.11° C | 83% | 1000 hPa | 0 mm | 0.89 m/s, 224° | 0 W/m² | - |
| 1777979369 | 20.56° C | 83% | 1000.2 hPa | 0 mm | 2.68 m/s, 190° | 0 W/m² | - |
| 1777979065 | 20.56° C | 83% | 1000.3 hPa | 0 mm | 0.89 m/s, 228° | 0 W/m² | - |
| 1777978762 | 21.11° C | 83% | 1000.4 hPa | 0 mm | 1.34 m/s, 234° | 0 W/m² | - |
| 1777978459 | 21.11° C | 83% | 1000.3 hPa | 0 mm | 1.79 m/s, 210° | 0 W/m² | - |
| 1777978155 | 21.11° C | 83% | 1000.2 hPa | 0 mm | 1.34 m/s, 201° | 0 W/m² | - |
| 1777977852 | 20.56° C | 83% | 1000.2 hPa | 0 mm | 1.34 m/s, 194° | 0 W/m² | - |
| 1777977548 | 20.56° C | 83% | 1000.3 hPa | 0 mm | 0.89 m/s, 211° | 0 W/m² | - |
| 1777977246 | 21.11° C | 82% | 1000.2 hPa | 0 mm | 0.89 m/s, 219° | 0 W/m² | - |
| 1777976943 | 21.11° C | 82% | 1000.2 hPa | 0 mm | 1.79 m/s, 185° | 0 W/m² | - |
| 1777976640 | 21.11° C | 82% | 999.9 hPa | 0 mm | 1.79 m/s, 221° | 0 W/m² | - |
| 1777976336 | 21.11° C | 82% | 1000.3 hPa | 0 mm | 1.34 m/s, 175° | 0 W/m² | - |
| 1777976031 | 21.11° C | 82% | 1000.3 hPa | 0 mm | 1.34 m/s, 175° | 0 W/m² | - |
| 1777975727 | 21.11° C | 82% | 1000.4 hPa | 0 mm | 0.89 m/s, 215° | 0 W/m² | - |
| 1777975424 | 21.11° C | 82% | 1000.5 hPa | 0 mm | 1.79 m/s, 185° | 0 W/m² | - |
| 1777975119 | 21.11° C | 82% | 1000.2 hPa | 0 mm | 1.79 m/s, 222° | 0 W/m² | - |
| 1777974817 | 21.11° C | 82% | 1000.2 hPa | 0 mm | 0.89 m/s, 211° | 0 W/m² | - |
| 1777974513 | 21.11° C | 82% | 1000.3 hPa | 0 mm | 1.34 m/s, 204° | 0 W/m² | - |
| 1777974210 | 21.11° C | 82% | 1000.3 hPa | 0 mm | 0.89 m/s, 249° | 0 W/m² | - |
| 1777973905 | 21.11° C | 82% | 1000.4 hPa | 0 mm | 0.89 m/s, 179° | 0 W/m² | - |
| 1777973604 | 21.11° C | 81% | 1000.5 hPa | 0 mm | 0.89 m/s, 213° | 0 W/m² | - |
| 1777973300 | 21.11° C | 81% | 1000.4 hPa | 0 mm | 1.79 m/s, 178° | 0 W/m² | - |
| 1777972999 | 21.11° C | 81% | 1000.5 hPa | 0 mm | 0.89 m/s, 184° | 0 W/m² | - |
| 1777972695 | 21.11° C | 80% | 1000.4 hPa | 0 mm | 0.89 m/s, 196° | 0 W/m² | - |
* Rain latest hour (hover to see other rain measurements)
** Current wind speed in m/s (hover to see current wind gust speed)